FW6938 Weather Reports


Display with metric or nautical units.
time (UTC)temp
F
wind
direction
speed
MPH
gust
MPH
rain 1hr
in
rain 24hr
in
rain mn
in
humidity
%
barometer
mb
20240224170018 39 0 1.0 3.0 0.00 0.00 0.00 62 1024.6
20240224164523 37 26 1.0 4.0 0.00 0.00 0.00 66 1024.8
20240224163027 35 155 1.0 2.0 0.00 0.00 0.00 72 1024.9
20240224161513 32 0 0.0 2.0 0.00 0.00 0.00 81 1025.0
20240224160016 28 156 0.0 2.0 0.00 0.00 0.00 84 1025.2
20240224154513 27 0 0.0 2.0 0.00 0.00 0.00 85 1025.5
20240224153013 27 0 0.0 0.0 0.00 0.00 0.00 85 1025.6
20240224151513 27 0 0.0 0.0 0.00 0.00 0.00 85 1025.5
20240224150014 26 0 0.0 0.0 0.00 0.00 0.00 85 1025.4
20240224144515 26 0 0.0 0.0 0.00 0.00 0.00 85 1025.2
20240224143013 26 0 0.0 0.0 0.00 0.00 0.00 85 1025.1
20240224141515 26 0 0.0 0.0 0.00 0.00 0.00 84 1025.1
20240224140013 27 0 0.0 0.0 0.00 0.00 0.00 82 1025.0
20240224134510 27 0 0.0 2.0 0.00 0.00 0.00 80 1024.9
20240224133014 28 0 0.0 0.0 0.00 0.00 0.00 81 1024.7
20240224131513 27 0 0.0 2.0 0.00 0.00 0.00 82 1024.9
20240224130011 26 155 0.0 1.0 0.00 0.00 0.00 83 1025.0
20240224124511 27 0 0.0 0.0 0.00 0.00 0.00 82 1025.0
20240224123013 27 0 0.0 0.0 0.00 0.00 0.00 83 1024.9
20240224121524 27 0 0.0 0.0 0.00 0.00 0.00 83 1024.8
20240224120015 27 0 0.0 2.0 0.00 0.00 0.00 83 1024.7
20240224114520 27 0 0.0 0.0 0.00 0.00 0.00 83 1024.7
20240224113014 27 0 0.0 0.0 0.00 0.00 0.00 83 1024.7
20240224111513 27 0 0.0 0.0 0.00 0.00 0.00 83 1024.8
20240224110011 27 0 0.0 0.0 0.00 0.00 0.00 82 1024.8
20240224104513 28 0 0.0 0.0 0.00 0.00 0.00 82 1024.8
20240224103015 28 0 0.0 0.0 0.00 0.00 0.00 82 1024.8
20240224101512 28 0 0.0 0.0 0.00 0.00 0.00 81 1024.8
20240224100015 29 0 0.0 0.0 0.00 0.00 0.00 80 1025.0
20240224094511 29 0 0.0 1.0 0.00 0.00 0.00 79 1025.0
20240224093013 29 0 0.0 2.0 0.00 0.00 0.00 81 1025.2
20240224091511 29 0 0.0 2.0 0.00 0.00 0.00 80 1025.2
20240224090012 30 0 0.0 0.0 0.00 0.00 0.00 79 1025.3
20240224084514 30 0 0.0 0.0 0.00 0.00 0.00 79 1025.5
20240224083011 30 0 0.0 1.0 0.00 0.00 0.00 81 1025.5
20240224081520 30 0 1.0 2.0 0.00 0.00 0.00 80 1025.5
20240224080011 30 0 0.0 0.0 0.00 0.00 0.00 79 1025.6
20240224074514 30 0 0.0 0.0 0.00 0.00 0.00 79 1025.7
20240224073011 30 0 0.0 2.0 0.00 0.00 0.00 79 1025.7
20240224071511 31 0 0.0 2.0 0.00 0.00 0.00 79 1025.7
20240224070012 31 0 0.0 2.0 0.00 0.00 0.00 79 1025.8
20240224064511 31 155 0.0 1.0 0.00 0.00 0.00 77 1025.9
20240224063014 31 0 0.0 0.0 0.00 0.00 0.00 78 1026.0
20240224061515 31 0 0.0 0.0 0.00 0.00 0.00 78 1025.9
20240224060018 31 0 0.0 0.0 0.00 0.00 0.00 79 1026.2
20240224054514 32 0 0.0 0.0 0.00 0.00 0.00 78 1025.9
20240224053021 32 0 0.0 0.0 0.00 0.00 0.00 78 1025.8
20240224051513 32 0 0.0 0.0 0.00 0.00 0.00 77 1025.9
20240224050016 33 0 0.0 0.0 0.00 0.00 0.00 76 1025.9
20240224044522 33 0 0.0 1.0 0.00 0.00 0.00 76 1025.8
20240224043028 33 0 0.0 0.0 0.00 0.00 0.00 74 1026.0
20240224041514 34 0 0.0 0.0 0.00 0.00 0.00 73 1026.1
20240224040018 34 0 0.0 0.0 0.00 0.00 0.00 74 1026.1
20240224034524 35 0 0.0 0.0 0.00 0.00 0.00 72 1026.2
20240224033022 35 0 0.0 0.0 0.00 0.00 0.00 72 1026.5
20240224031524 35 0 0.0 1.0 0.00 0.00 0.00 69 1026.7
20240224030016 36 0 0.0 0.0 0.00 0.00 0.00 68 1026.7
20240224024516 37 0 0.0 0.0 0.00 0.00 0.00 66 1026.8
20240224023017 38 0 0.0 0.0 0.00 0.00 0.00 65 1026.7
20240224021513 39 0 0.0 1.0 0.00 0.00 0.00 64 1026.6
20240224020013 40 0 0.0 2.0 0.00 0.00 0.00 62 1026.4
20240224014513 41 0 0.0 2.0 0.00 0.00 0.00 60 1026.2
20240224013014 41 155 0.0 3.0 0.00 0.00 0.00 59 1026.1
20240224011518 43 0 0.0 2.0 0.00 0.00 0.00 56 1025.9
20240224010022 44 0 0.0 0.0 0.00 0.00 0.00 53 1025.9
20240224004511 45 0 0.0 3.0 0.00 0.00 0.00 51 1026.0
20240224003024 46 0 0.0 2.0 0.00 0.00 0.00 48 1026.3
20240224001513 47 162 1.0 4.0 0.00 0.00 0.00 47 1026.5
20240224000014 47 0 1.0 5.0 0.00 0.00 0.00 47 1026.5
20240223234518 47 216 1.0 7.0 0.00 0.00 0.00 47 1026.7
20240223233012 47 158 2.0 6.0 0.00 0.00 0.00 47 1026.7
20240223231513 48 127 1.0 6.0 0.00 0.00 0.00 48 1026.8
20240223230014 48 248 2.0 8.0 0.00 0.00 0.00 48 1027.0
20240223224515 49 271 3.0 9.0 0.00 0.00 0.00 43 1026.8
20240223223011 48 273 1.0 8.0 0.00 0.00 0.00 46 1026.9
20240223221512 47 129 2.0 8.0 0.00 0.00 0.00 50 1027.0
20240223220013 48 335 1.0 9.0 0.00 0.00 0.00 48 1027.1
20240223214511 48 207 3.0 10.0 0.00 0.00 0.00 52 1027.1
20240223213028 47 150 2.0 5.0 0.00 0.00 0.00 52 1027.1
20240223211514 46 360 1.0 7.0 0.00 0.00 0.00 52 1027.4
20240223210012 46 22 2.0 5.0 0.00 0.00 0.00 52 1027.7
20240223204514 46 124 2.0 8.0 0.00 0.02 0.00 52 1027.9
20240223203012 46 155 2.0 5.0 0.00 0.02 0.00 52 1028.3
20240223201512 46 243 1.0 10.0 0.00 0.02 0.00 54 1028.4
20240223200017 46 226 1.0 6.0 0.00 0.02 0.00 55 1028.6
20240223194512 44 263 0.0 6.0 0.00 0.02 0.00 57 1028.8
20240223193011 45 0 1.0 5.0 0.00 0.02 0.00 60 1029.1
20240223191513 44 0 0.0 7.0 0.00 0.02 0.00 62 1029.3
20240223190013 43 40 1.0 6.0 0.00 0.02 0.00 64 1029.5
20240223184513 43 227 1.0 7.0 0.00 0.02 0.00 63 1029.6
20240223183016 43 0 1.0 5.0 0.00 0.02 0.00 64 1029.6
20240223181511 42 155 0.0 4.0 0.00 0.02 0.00 65 1029.7
20240223180012 41 230 0.0 4.0 0.00 0.02 0.00 65 1029.9
20240223174521 41 126 1.0 4.0 0.00 0.02 0.00 63 1029.8
20240223173013 40 98 0.0 3.0 0.00 0.02 0.00 64 1029.8
20240223171526 38 0 0.0 2.0 0.00 0.02 0.00 64 1029.8